DECAYED

STARLINK-2054, 47664 (Decayed)

Orbit data source: Space-Track

STARLINK-2054, 47664 was a payload satellite owned by SpaceX/Seattle (US) in LEO that was launched on Tue, 16 Feb 2021 UTC via an FALCON 9 launch vehicle from the Air Force Eastern Test Range (AFETR). Payload-class satellites include a variety of spacecraft equipped with specific instruments for various scientific and technological missions. These include communications satellites like Starlink; space stations such as the ISS; scientific satellites like the Hubble; Earth observation satellites from companies like Planet Labs, Umbra, and HawkEye 360; GPS; miniature CubeSats for education and research; and military/defense satellites.

Not visible in the next 10 days
Identifier
47664, 2021-012AW
Orbit
Decayed
Country
Flag of USUS
Related business
Manufacturer
SpaceX/Seattle
Mission
Decayed Commercial Communications
Bus & Motor
STARLINK, Unknown motor
Mass
260 kg wet, ~248 kg dry
Launch date (UTC)
2021-02-16 (5 years ago)
Launch vehicle
FALCON 9
Launch site
Air Force Eastern Test Range (AFETR)
Object type
Payload
Rocket body
Debris
Shape & HBR
Box + 1 Pan, 10.1 m
Radar Cross Section
13.562 m², Large (>1 m²)

Expand to show TLE details & history
Last TLE update: 1 year ago

TLE from 1 year ago
0 STARLINK-2054
1 47664U 21012AW  25032.38656958  .11494346  12386-4  75147-3 0  9998
2 47664  53.0266  21.3703 0002149  92.2395  67.5778 16.40899638219706
Epoch: 2025-02-01T09:16Z
TLE epoch observation values (Epoch: 2025-02-01T09:16:39.611Z)
Latitude
16.00256°
Longitude
-82.02611°
Altitude
163.113 km
Speed
7.811 km/s
True Right ascension
12h 35m 53s
True Declination
15° 54' 12"
Sunlit
Object was in full shadow at epoch
Visualization orbit readout
Latitude
Unknown
Longitude
Unknown
Altitude
Unknown
Speed
Unknown
Apparent Right ascension
Unknown
Apparent Declination
Unknown
Sunlit
N/A
Visualization observer readout
Local Sidereal Time
21:26:00
Azimuth
Unknown
Elevation
Unknown
Doppler factor
Unknown
Orbital elements
Apogee altitude
165.107 km
Perigee altitude
162.295 km
Semi-major axis
6,541.838 km
Eccentricity
0.00021
Inclination
53.0266°
RAAN
21.3703°
Arg. of periapsis
92.2395°
True anomaly
67.60057°
Mean anomaly
67.5778°
Eccentric anomaly
67.58918°
Mean motion
4.10198 °/min
Orbital period
87.76 mins
BSTAR
0.00075147
Loading maneuver chart data...
Computing Atmospheric mass density...

Documentation

Showing up to 5 results
|